Lid_Strength_Index
-0 -1 -1 -1 -1 -1 -1 -1 -1 -1 -1 -1 -1 -1 -1 -1 -2 -1 -1 -2 -1 -1 -1 -1 -1 -2 -1 -2 -2 -1 -1 -1 -1 -1 -1 -1 -1 -1 -1 -1 -1 -1 -1
-1 -0 -0 -0 -1 -1 -1 -1 -1 -0 -0 -1 -1 -1 -1 -1 -1 -2 -1 -2 -1 -1 -1 -1 -1 -2 -1 -2 -2 -2 -2 -1 -1 -1 -1 -1 -1 -1 -1 -1 -1 -1 -1
-1 -1 -0 -0 -1 -1 -1 -1 -1 -1 -0 -0 -0 -1 -1 -1 -1 -1 -1 -2 -1 -1 -1 -1 -2 -2 -1 -1 -2 -1 -2 -1 -1 -1 -1 -1 -1 -1 -1 -1 -1 -1 -1
-1 -1 -0 0 -1 -1 -1 -0 -0 0 0 0 0 -0 -0 -1 -1 -1 -1 -1 -1 -1 -1 -1 -2 -1 -2 -2 -1 -1 -1 -1 -1 -1 -1 -1 -1 -1 -1 -1 -1 -1 -1
-1 -1 -0 -0 -1 -0 -0 -0 0 0 1 0 0 0 -0 -0 -0 -0 -1 -1 -1 -1 -1 -1 -1 -1 -1 -1 -1 -2 -1 -1 -1 -1 -1 -1 -1 -1 -1 -1 -1 -1 -1
-1 -1 -1 -1 -1 -0 0 0 0 0 0 1 1 1 0 0 -0 0 -0 -1 -1 -1 -1 -1 -1 -1 -1 -1 -1 -1 -1 -1 -0 -1 -1 -1 -1 -1 -1 -1 -1 -1 -1
-1 -1 -0 -0 -1 0 0 -0 0 1 1 0 1 2 1 0 0 0 -0 -0 -0 -1 -1 -1 -1 -1 -1 -1 -1 -1 -1 -1 -1 -1 -0 -0 -0 -1 -1 -1 -1 -1 -1
-1 -1 -0 -0 -0 0 0 0 0 1 1 0 2 2 4 3 1 0 -0 0 -0 -0 -0 -1 -1 -1 -1 -1 -1 -1 -1 -1 -1 -1 -0 0 -0 -1 -1 -1 -1 -1 -1
-1 -1 -1 -0 -0 -0 1 0 0 1 2 1 1 2 5 6 3 1 1 0 0 0 -0 -0 -1 -1 -2 -1 -1 -1 -1 -1 -1 -1 -0 -0 -0 -1 -1 -1 -1 -1 -1
-1 -1 -1 -1 -1 -0 0 0 0 1 1 3 1 1 1 2 5 5 2 1 0 1 0 -0 -0 -1 -1 -1 -2 -1 0 -0 -1 -1 -1 -0 -1 -1 -1 -1 -1 -1 -1
-1 -1 -1 -1 -0 -0 -0 -0 -0 0 1 1 2 2 2 2 2 4 5 3 1 1 0 0 -0 -0 -1 -1 -1 -1 0 0 0 0 -0 -0 -1 -1 -1 -1 -1 -1 -1
-0 -1 -1 -1 -1 -1 -0 -0 -0 -0 0 0 1 1 2 3 3 4 5 4 3 2 1 0 0 -0 -1 -1 -1 -1 1 1 1 1 1 0 -0 -0 -1 -1 -1 -1 -1
1 -0 -1 -0 -0 -1 -1 -1 -0 -0 0 1 1 1 1 2 1 2 3 4 4 2 2 0 0 -0 -0 -1 -1 -1 -0 1 1 2 2 2 1 -0 -0 -1 -1 -1 -1
0 -1 -1 -1 -1 -1 -1 -1 -0 -0 -0 0 1 1 1 1 1 1 2 3 5 4 2 2 0 -0 -0 -1 -1 -0 -1 1 1 3 3 2 2 1 0 0 -0 -0 -0
-0 -1 -1 -0 -1 -1 -1 -1 -0 0 -0 -0 0 0 1 1 0 1 1 2 4 6 5 2 2 -0 -0 -1 -1 -1 -1 0 1 2 3 3 3 2 2 1 1 0 1
-0 -0 -0 -0 -0 -0 -1 -0 -0 -1 0 0 0 0 0 0 0 0 1 1 2 3 5 2 1 0 -0 -0 -1 -1 -1 0 1 1 2 3 3 2 3 2 2 1 1
-0 0 -0 -0 0 -0 -0 -0 0 -0 0 0 -0 0 0 -0 1 1 1 1 2 2 4 3 1 0 0 0 -0 -1 -1 -1 -1 2 2 3 3 4 4 4 3 3 2
1 1 0 1 0 0 -0 0 0 1 1 1 1 0 0 0 0 0 1 1 2 2 3 4 2 1 1 -0 -0 -0 -0 -1 -1 2 3 3 3 5 5 5 4 4 4
3 3 3 3 2 1 0 0 0 1 1 1 1 0 0 0 1 1 1 2 2 1 2 3 3 1 1 0 0 0 0 -0 -0 1 3 3 4 4 4 5 5 5 6
3 3 3 3 2 2 2 1 0 1 1 0 0 0 0 0 1 1 1 1 1 2 2 3 3 2 2 1 1 2 2 1 1 -0 0 1 2 3 4 5 5 5 6
3 3 3 3 2 2 2 1 1 0 1 1 0 0 0 0 1 1 1 1 2 2 3 3 3 3 3 2 2 1 2 2 1 -0 0 -0 -0 -0 -0 4 2 4 6
3 2 3 3 2 2 4 4 2 1 1 1 1 0 0 1 1 2 2 2 1 2 3 3 3 4 3 2 1 2 2 2 3 -1 1 1 -0 0 -0 -1 2 5 6
3 3 3 3 4 3 5 6 6 3 2 2 2 1 1 1 2 1 2 3 3 4 3 2 3 3 2 1 1 2 2 2 2 1 0 2 -0 0 -1 -0 4 5 6
7 6 6 6 5 5 8 8 8 6 4 2 2 3 3 3 3 3 2 1 1 1 1 1 1 1 0 0 0 1 2 1 1 0 -0 3 0 1 -0 -1 5 7 8
9 9 9 9 8 8 9 10 10 7 7 5 4 3 4 4 5 6 2 2 1 1 2 4 4 5 7 7 3 1 2 3 3 2 0 1 1 1 -0 0 1 7 8
12 12 11 11 10 9 10 11 10 8 8 6 4 3 6 4 6 6 1 2 2 2 2 1 1 4 5 4 6 0 1 3 3 3 1 2 2 1 3 0 -0 -0 -1